EN

Hourly Weather Acarau

Today, 26 November, Thursday

Time Temperature Precipitation Wind Pressure Humidity
00:00 +27°C° 0 mm 6 mps 757 mmHg 73%
01:00 +27°C° 0 mm 6 mps 756 mmHg 74%
02:00 +27°C° 0 mm 6 mps 756 mmHg 76%
03:00 +27°C° 0 mm 6 mps 756 mmHg 78%
04:00 +27°C° 0 mm 6 mps 756 mmHg 78%
05:00 +27°C° 0 mm 5 mps 756 mmHg 79%
06:00 +26°C° 0 mm 5 mps 756 mmHg 80%
07:00 +29°C° 0 mm 6 mps 757 mmHg 69%
08:00 +32°C° 0 mm 6 mps 757 mmHg 59%
09:00 +35°C° 0 mm 7 mps 757 mmHg 48%
10:00 +36°C° 0 mm 7 mps 757 mmHg 45%
11:00 +37°C° 0 mm 8 mps 756 mmHg 43%
12:00 +38°C° 0 mm 8 mps 756 mmHg 40%
13:00 +38°C° 0 mm 8 mps 755 mmHg 41%
14:00 +38°C° 0 mm 8 mps 755 mmHg 42%
15:00 +37°C° 0 mm 9 mps 754 mmHg 44%
16:00 +35°C° 0 mm 8 mps 755 mmHg 49%
17:00 +33°C° 0 mm 8 mps 755 mmHg 54%
18:00 +31°C° 0 mm 8 mps 755 mmHg 59%
19:00 +31°C° 0 mm 8 mps 755 mmHg 63%
20:00 +29°C° 0 mm 7 mps 756 mmHg 67%
21:00 +29°C° 0 mm 7 mps 756 mmHg 70%
22:00 +29°C° 0 mm 7 mps 756 mmHg 73%
23:00 +29°C° 0 mm 7 mps 756 mmHg 75%

Tomorrow, 27 November, Friday

Time Temperature Precipitation Wind Pressure Humidity
00:00 +28°C° 0 mm 7 mps 756 mmHg 78%
01:00 +28°C° 0 mm 7 mps 755 mmHg 78%
02:00 +28°C° 0 mm 7 mps 755 mmHg 78%
03:00 +28°C° 0 mm 7 mps 755 mmHg 78%
04:00 +28°C° 0 mm 7 mps 755 mmHg 77%
05:00 +28°C° 0 mm 6 mps 756 mmHg 76%
06:00 +28°C° 0 mm 6 mps 756 mmHg 75%
07:00 +29°C° 0 mm 7 mps 756 mmHg 69%
08:00 +32°C° 0 mm 7 mps 757 mmHg 62%
09:00 +33°C° 0 mm 7 mps 757 mmHg 55%
10:00 +35°C° 0 mm 8 mps 757 mmHg 49%
11:00 +38°C° 0 mm 8 mps 756 mmHg 42%
12:00 +40°C° 0 mm 8 mps 756 mmHg 35%
13:00 +39°C° 0 mm 8 mps 755 mmHg 38%
14:00 +38°C° 0 mm 9 mps 755 mmHg 41%
15:00 +37°C° 0 mm 9 mps 754 mmHg 44%
16:00 +34°C° 0 mm 9 mps 754 mmHg 51%
17:00 +33°C° 0 mm 8 mps 754 mmHg 58%
18:00 +31°C° 0 mm 8 mps 755 mmHg 64%
19:00 +31°C° 0 mm 8 mps 755 mmHg 66%
20:00 +29°C° 0 mm 8 mps 756 mmHg 69%
21:00 +29°C° 0 mm 8 mps 756 mmHg 71%
22:00 +29°C° 0 mm 7 mps 756 mmHg 73%
23:00 +29°C° 0 mm 7 mps 756 mmHg 75%

Day after tomorrow, 28 November, Saturday

Time Temperature Precipitation Wind Pressure Humidity
00:00 +28°C° 0 mm 7 mps 756 mmHg 78%
01:00 +28°C° 0 mm 7 mps 756 mmHg 76%
02:00 +28°C° 0 mm 7 mps 756 mmHg 75%
03:00 +28°C° 0 mm 7 mps 755 mmHg 74%
04:00 +28°C° 0 mm 7 mps 756 mmHg 73%
05:00 +28°C° 0 mm 7 mps 756 mmHg 72%
06:00 +28°C° 0 mm 7 mps 757 mmHg 71%
07:00 +30°C° 0 mm 7 mps 757 mmHg 63%
08:00 +32°C° 0 mm 8 mps 757 mmHg 55%
09:00 +34°C° 0 mm 8 mps 757 mmHg 46%
10:00 +37°C° 0 mm 8 mps 757 mmHg 42%
11:00 +38°C° 0 mm 9 mps 757 mmHg 37%
12:00 +40°C° 0 mm 9 mps 756 mmHg 32%
13:00 +39°C° 0 mm 9 mps 756 mmHg 34%
14:00 +38°C° 0 mm 9 mps 755 mmHg 37%
15:00 +37°C° 0 mm 10 mps 755 mmHg 40%
16:00 +34°C° 0 mm 9 mps 755 mmHg 49%
17:00 +32°C° 0 mm 9 mps 755 mmHg 58%
18:00 +29°C° 0 mm 8 mps 755 mmHg 67%
19:00 +29°C° 0 mm 8 mps 756 mmHg 70%
20:00 +29°C° 0 mm 8 mps 756 mmHg 73%
21:00 +29°C° 0 mm 8 mps 757 mmHg 75%
22:00 +28°C° 0 mm 8 mps 757 mmHg 75%
23:00 +28°C° 0 mm 7 mps 756 mmHg 75%

29 November, Sunday

Time Temperature Precipitation Wind Pressure Humidity
00:00 +28°C° 0 mm 7 mps 756 mmHg 74%
01:00 +28°C° 0 mm 7 mps 756 mmHg 75%
02:00 +28°C° 0 mm 6 mps 756 mmHg 76%
03:00 +27°C° 0 mm 6 mps 756 mmHg 77%
04:00 +27°C° 0 mm 6 mps 756 mmHg 74%
05:00 +28°C° 0 mm 7 mps 756 mmHg 70%
06:00 +28°C° 0 mm 7 mps 757 mmHg 67%
07:00 +29°C° 0 mm 7 mps 757 mmHg 58%
08:00 +32°C° 0 mm 7 mps 757 mmHg 49%
09:00 +34°C° 0 mm 7 mps 758 mmHg 40%
10:00 +36°C° 0 mm 7 mps 757 mmHg 37%
11:00 +38°C° 0 mm 7 mps 757 mmHg 34%
12:00 +39°C° 0 mm 7 mps 756 mmHg 31%
13:00 +38°C° 0 mm 8 mps 756 mmHg 36%
14:00 +37°C° 0 mm 8 mps 755 mmHg 40%
15:00 +35°C° 0 mm 9 mps 754 mmHg 45%
16:00 +33°C° 0 mm 8 mps 755 mmHg 53%
17:00 +31°C° 0 mm 8 mps 755 mmHg 60%
18:00 +29°C° 0 mm 7 mps 755 mmHg 68%
19:00 +28°C° 0 mm 7 mps 756 mmHg 70%
20:00 +28°C° 0 mm 7 mps 757 mmHg 73%
21:00 +28°C° 0 mm 7 mps 757 mmHg 75%
22:00 +28°C° 0 mm 6 mps 757 mmHg 77%
23:00 +28°C° 0 mm 6 mps 757 mmHg 79%

30 November, Monday

Time Temperature Precipitation Wind Pressure Humidity
00:00 +27°C° 0 mm 6 mps 757 mmHg 81%
01:00 +27°C° 0 mm 5 mps 757 mmHg 81%
02:00 +27°C° 0 mm 5 mps 756 mmHg 82%
03:00 +27°C° 0 mm 5 mps 756 mmHg 82%
04:00 +27°C° 0.1 mm 5 mps 756 mmHg 79%
05:00 +27°C° 0.1 mm 5 mps 757 mmHg 77%
06:00 +28°C° 0.1 mm 4 mps 757 mmHg 75%
07:00 +30°C° 0.3 mm 5 mps 757 mmHg 68%
08:00 +32°C° 0.3 mm 5 mps 757 mmHg 62%
09:00 +34°C° 0.3 mm 6 mps 758 mmHg 56%
10:00 +34°C° 0.5 mm 6 mps 757 mmHg 54%
11:00 +35°C° 0.5 mm 6 mps 757 mmHg 53%
12:00 +35°C° 0.5 mm 7 mps 756 mmHg 52%
13:00 +35°C° 0.4 mm 7 mps 756 mmHg 52%
14:00 +35°C° 0.4 mm 7 mps 755 mmHg 52%
15:00 +35°C° 0.4 mm 7 mps 755 mmHg 53%
16:00 +33°C° 0 mm 7 mps 755 mmHg 60%
17:00 +32°C° 0 mm 6 mps 755 mmHg 68%
18:00 +29°C° 0 mm 6 mps 755 mmHg 76%
19:00 +29°C° 0 mm 6 mps 756 mmHg 77%
20:00 +29°C° 0 mm 6 mps 756 mmHg 79%
21:00 +28°C° 0 mm 6 mps 757 mmHg 80%
22:00 +29°C° 0 mm 5 mps 757 mmHg 79%
23:00 +29°C° 0 mm 5 mps 757 mmHg 79%

1 December, Tuesday

Time Temperature Precipitation Wind Pressure Humidity
00:00 +29°C° 0 mm 5 mps 756 mmHg 78%
01:00 +28°C° 0.1 mm 5 mps 756 mmHg 79%
02:00 +28°C° 0.1 mm 5 mps 756 mmHg 80%
03:00 +28°C° 0.1 mm 5 mps 756 mmHg 80%
04:00 +28°C° 0.1 mm 5 mps 756 mmHg 80%
05:00 +28°C° 0.1 mm 5 mps 756 mmHg 80%
06:00 +28°C° 0.1 mm 5 mps 756 mmHg 80%
07:00 +30°C° 0.1 mm 5 mps 757 mmHg 71%
08:00 +32°C° 0.1 mm 6 mps 757 mmHg 61%
09:00 +34°C° 0.1 mm 6 mps 757 mmHg 52%
10:00 +35°C° 0 mm 6 mps 757 mmHg 50%
11:00 +35°C° 0 mm 7 mps 757 mmHg 47%
12:00 +36°C° 0 mm 7 mps 756 mmHg 45%
13:00 +37°C° 0 mm 8 mps 756 mmHg 47%
14:00 +37°C° 0 mm 8 mps 755 mmHg 49%
15:00 +35°C° 0 mm 8 mps 755 mmHg 50%
16:00 +34°C° 0 mm 8 mps 755 mmHg 57%
17:00 +32°C° 0 mm 8 mps 755 mmHg 64%
18:00 +29°C° 0 mm 7 mps 755 mmHg 70%
19:00 +29°C° 0 mm 7 mps 756 mmHg 72%
20:00 +29°C° 0 mm 7 mps 756 mmHg 75%
21:00 +29°C° 0 mm 7 mps 757 mmHg 77%
22:00 +28°C° 0 mm 6 mps 757 mmHg 78%
23:00 +28°C° 0 mm 6 mps 757 mmHg 79%
Show more